Temp
23 21 21 23 24 24 25 26 25 24 25 25 23 22 23 23 24 24 24 24 25 24 24 23 23 23 23 23 22 22 22 22 23 22 22 22 23 23 23 23 23 23 23 24
22 22 23 24 24 25 26 26 23 24 23 23 23 23 22 23 24 24 24 22 25 24 22 22 22 23 23 23 23 22 23 23 23 23 23 23 23 23 23 23 23 23 24 24
22 25 24 25 25 25 25 25 23 24 23 23 24 23 23 22 21 23 22 22 22 24 23 23 23 23 23 23 23 23 23 23 23 23 23 23 23 23 23 23 23 23 23 23
24 25 26 25 25 24 25 25 25 23 23 23 23 23 22 22 21 22 22 22 21 22 23 23 23 22 23 24 23 23 23 24 23 23 23 24 24 23 24 24 23 23 23 23
24 26 25 25 25 24 25 26 25 24 21 22 23 22 23 22 22 21 23 22 21 22 22 23 23 23 23 24 24 24 23 24 24 24 24 24 24 24 24 24 23 23 23 23
24 26 25 25 25 25 25 24 21 20 20 22 23 23 22 22 23 22 23 23 22 22 21 22 23 23 23 23 23 23 23 24 24 24 24 24 24 24 24 24 23 23 23 23
24 25 25 26 26 25 22 21 20 21 21 22 20 22 22 20 22 23 23 23 23 22 21 22 22 24 24 23 23 23 24 23 24 24 24 24 24 24 24 24 24 23 23 23
21 23 25 26 25 24 22 22 21 23 21 22 21 22 22 20 20 22 23 24 23 21 21 21 22 24 24 23 23 23 23 24 23 23 24 24 24 24 24 24 24 24 24 24
21 23 25 26 27 25 24 23 23 21 21 21 21 22 21 21 20 21 23 23 21 21 21 21 21 22 23 24 23 23 22 23 23 23 24 24 23 23 24 24 24 24 24 24
22 23 24 25 26 26 24 24 24 20 22 24 21 22 21 21 21 21 21 21 21 21 21 21 21 21 22 23 23 23 22 23 23 23 23 24 24 23 24 23 24 24 24 24
20 21 23 24 24 24 23 24 21 20 20 21 21 21 21 21 21 21 21 19 19 20 21 21 20 20 21 21 22 23 23 23 23 23 23 24 24 23 23 23 21 23 24 24
21 17 21 24 23 21 23 23 21 21 22 18 20 20 20 21 21 21 20 20 18 19 19 19 19 20 19 20 21 22 22 21 23 22 22 22 23 23 24 24 23 23 23 25
21 17 19 22 22 21 21 21 21 18 18 19 22 20 19 19 18 19 19 20 19 18 18 18 19 19 19 18 18 18 18 19 19 20 21 22 22 23 23 23 24 24 24 24
18 15 19 19 21 20 21 21 23 20 20 20 20 20 19 19 18 18 19 19 19 18 18 17 18 18 18 18 18 18 18 18 18 18 20 20 21 22 23 23 23 24 24 24
18 19 20 19 20 21 22 21 21 22 22 24 21 20 20 18 17 19 19 18 18 18 17 17 17 17 17 17 17 18 18 18 18 17 17 18 18 18 19 20 22 23 24 24
16 18 20 21 21 22 23 21 21 20 20 19 19 20 18 17 18 18 19 19 18 18 18 17 16 16 17 17 17 17 17 19 18 17 17 17 18 17 18 18 19 20 21 21
18 18 17 19 19 22 22 21 20 20 21 20 19 19 18 17 18 19 19 19 18 17 16 16 16 15 15 15 15 15 15 16 17 17 17 16 16 17 17 17 17 19 19 19
17 16 16 17 18 20 20 22 20 19 19 19 19 18 18 18 17 18 19 19 18 17 16 16 15 14 13 13 13 13 13 13 15 15 15 16 16 16 16 16 16 16 17 18
15 14 14 17 17 18 21 21 21 20 19 18 18 18 18 18 19 18 19 18 16 15 15 15 14 13 13 13 13 13 13 13 14 14 14 15 16 16 16 16 16 17 16 17
14 13 16 14 18 18 18 21 20 19 19 18 18 18 18 19 18 16 17 16 15 14 14 13 14 13 13 13 14 14 13 13 13 13 14 14 15 15 16 16 16 16 17 17
13 12 15 14 16 17 19 18 19 20 19 18 18 17 18 17 16 14 16 16 14 14 13 14 14 13 13 13 14 12 12 11 12 13 13 14 14 14 15 15 16 16 17 17
15 13 13 12 16 18 15 18 21 17 15 16 17 17 16 14 14 14 14 13 13 12 12 13 12 12 12 13 14 11 11 11 12 12 12 13 13 13 14 15 15 15 16 16
14 13 14 14 13 14 14 15 15 14 15 15 14 13 14 14 14 14 12 12 12 12 12 12 12 12 12 13 13 11 10 11 11 11 11 11 12 12 12 13 13 14 14 13
15 12 13 14 15 15 15 16 15 14 14 13 13 14 14 13 13 13 12 12 12 11 11 11 11 11 10 11 11 11 10 10 11 10 10 10 11 11 11 11 11 12 12 12
12 13 12 13 14 15 16 15 15 14 13 13 13 14 14 13 13 13 12 13 12 11 11 12 12 11 10 10 10 10 10 10 10 9 9 9 9 10 10 10 10 9 9 10
11 12 12 13 13 13 14 13 15 14 14 13 13 13 14 14 15 15 14 13 12 11 12 12 12 11 10 10 10 10 10 10 9 9 8 8 8 8 9 9 9 9 9 9
Height
779 795 804 796 790 793 794 798 806 801 792 800 813 816 811 810 812 816 819 819 821 822 824 829 833 837 841 844 847 848 850 854 856 858 861 864 866 869 870 872 875 877 879 880
791 801 787 783 787 791 795 800 812 803 799 803 811 816 816 813 811 811 817 823 821 823 825 828 832 836 839 842 846 848 850 852 855 858 859 862 865 868 870 873 875 877 879 880
793 783 779 782 789 794 796 805 809 805 804 802 805 818 819 817 816 813 818 822 824 822 823 826 829 832 837 841 844 847 848 851 855 858 860 862 865 867 870 872 874 876 878 880
781 773 778 785 789 793 804 788 793 803 812 830 812 838 818 814 818 817 818 823 824 822 822 825 827 830 832 837 842 846 848 850 854 857 860 861 863 865 867 870 873 875 877 879
787 778 782 789 786 785 793 779 793 798 818 822 823 833 815 814 820 817 813 819 822 824 821 822 824 825 829 835 839 843 848 850 853 856 858 860 862 865 866 868 871 874 877 879
778 766 773 778 773 776 777 789 805 816 824 840 821 826 825 817 809 809 808 812 818 823 822 822 823 830 833 837 841 843 847 850 851 855 857 860 861 864 866 868 870 873 875 877
782 777 767 765 779 777 787 803 839 843 845 842 826 828 818 812 798 799 800 806 813 819 822 821 825 827 830 834 839 842 845 848 851 854 857 859 861 863 865 867 869 871 874 876
805 802 774 762 771 785 792 795 826 839 848 834 822 830 812 805 801 795 797 800 809 818 820 821 823 824 827 832 837 841 843 847 851 853 856 859 860 863 865 867 869 870 873 875
804 794 764 759 757 764 785 797 785 820 822 831 829 815 806 802 802 798 800 801 810 814 818 819 823 824 826 830 833 838 843 846 850 853 855 858 861 862 864 866 868 870 871 874
787 799 771 763 755 759 770 770 800 816 836 830 831 821 818 808 806 804 805 805 809 813 817 818 822 824 825 829 831 836 841 845 849 852 854 856 859 861 863 865 867 869 870 872
782 792 786 770 779 782 781 784 794 802 815 830 837 824 802 803 802 806 807 809 811 811 812 816 819 821 823 825 828 833 837 842 846 850 853 855 857 860 862 863 865 868 869 870
779 800 803 783 774 776 774 781 792 806 814 823 821 823 801 798 802 804 809 809 813 814 816 818 820 821 821 825 829 832 834 839 844 849 852 854 855 857 860 861 863 866 868 869
777 805 816 799 789 781 792 786 788 800 805 814 813 820 801 800 806 807 809 811 814 818 818 817 819 820 820 826 827 834 835 839 844 848 850 853 854 855 857 859 861 863 865 866
779 806 803 821 805 800 797 792 782 792 806 811 806 808 806 804 808 809 808 810 814 818 820 820 820 819 821 824 831 836 837 840 844 847 847 851 852 852 854 856 858 860 862 865
787 802 796 797 795 794 793 795 790 787 786 788 795 799 790 796 802 803 806 810 815 819 820 820 819 818 820 819 824 833 839 837 839 846 847 851 851 853 853 853 855 857 859 862
793 806 796 797 790 790 790 795 788 788 790 791 793 794 787 797 802 805 807 810 816 821 822 822 823 822 821 823 827 828 836 838 840 842 842 848 851 855 854 856 855 855 857 860
795 803 812 811 802 787 798 797 794 791 784 788 798 788 786 798 801 803 807 811 817 821 825 826 826 826 824 827 832 834 835 838 837 842 847 852 855 857 857 857 858 856 858 860
797 807 816 821 808 819 797 780 785 794 790 789 788 786 790 795 803 804 807 814 819 824 826 827 829 830 831 831 835 839 843 844 846 851 854 856 856 856 857 859 860 858 859 857
794 808 825 824 825 811 789 787 790 795 797 789 791 790 793 798 802 811 811 817 824 827 829 831 834 837 838 840 843 844 849 852 853 857 858 859 859 859 860 860 858 858 862 858
799 804 810 828 819 823 806 788 784 782 806 785 787 792 794 797 813 817 815 820 826 830 833 836 837 841 844 849 850 852 856 856 857 859 859 859 860 860 861 861 861 861 862 859
820 823 823 829 825 816 796 792 784 806 806 788 791 790 794 802 805 812 816 823 830 832 833 838 842 843 848 851 851 854 856 858 859 859 860 861 860 861 861 860 860 860 861 860
815 828 829 836 825 816 799 790 793 797 792 788 791 795 799 806 808 812 819 825 830 834 838 840 842 846 850 851 851 854 857 860 861 860 862 862 863 861 860 859 861 860 859 862
821 817 818 821 823 808 801 798 793 791 790 793 794 799 803 806 815 819 825 830 834 837 839 842 843 847 850 852 853 855 860 860 859 860 861 862 862 861 861 861 862 862 863 864
808 812 815 812 807 804 801 796 793 791 792 794 798 802 807 813 818 823 827 832 837 840 842 845 847 850 852 853 854 856 859 860 860 860 861 863 862 862 862 862 863 863 864 865
813 811 816 816 807 804 801 799 798 797 797 797 801 802 805 814 820 825 829 834 837 841 844 846 847 850 853 856 857 858 859 860 861 862 863 864 864 864 864 865 866 867 868 868
811 810 816 816 806 806 804 803 800 801 800 800 801 807 811 814 813 815 821 825 831 837 841 845 848 850 852 855 857 858 859 861 862 862 864 865 867 868 869 869 868 868 868 870
Wind_Speed
2 5 6 6 5 5 3 2 1 2 6 4 3 4 9 8 12 8 8 13 10 14 15 19 23 24 24 24 25 25 21 19 19 19 17 16 15 14 12 9 13 10 9 8
5 4 7 7 4 4 2 1 1 2 2 4 5 5 1 8 15 15 6 2 11 9 8 16 22 23 25 27 26 25 22 22 21 19 19 17 17 14 13 14 13 12 11 9
6 2 9 6 4 4 2 5 4 3 6 6 4 3 4 3 3 12 8 5 6 7 12 13 19 24 26 27 29 27 26 22 21 15 15 13 15 12 12 13 13 13 13 12
3 2 4 4 4 5 3 6 6 10 4 3 2 4 4 8 6 12 17 11 3 8 6 10 18 21 29 31 29 28 26 22 21 15 16 15 16 13 13 14 13 11 11 11
5 2 2 2 6 8 5 3 8 6 5 4 2 2 2 9 10 12 18 15 9 5 7 11 18 26 28 32 33 29 26 24 21 17 17 15 14 12 10 12 13 12 11 10
5 1 5 7 5 9 8 9 8 5 4 1 4 3 3 6 12 13 15 17 14 2 4 7 10 8 16 21 27 29 26 26 22 19 17 17 16 12 11 12 14 13 11 10
4 4 3 4 4 2 5 5 3 3 1 5 2 4 5 5 5 15 19 19 18 6 2 2 9 14 17 19 23 29 29 26 23 21 17 13 11 10 14 15 14 14 14 11
5 4 6 4 8 9 8 8 5 5 5 3 3 5 3 2 4 7 16 20 13 8 2 2 2 10 14 19 22 26 30 28 24 21 17 14 13 13 13 13 16 15 14 13
3 5 4 5 4 7 6 4 5 7 3 4 3 1 2 5 5 6 12 16 15 13 6 4 4 0 9 17 21 23 24 29 25 22 17 14 14 13 13 11 17 16 14 13
4 1 2 5 1 3 6 5 3 2 6 4 3 3 4 7 8 8 9 13 12 11 9 3 5 6 5 16 14 18 20 26 25 20 18 14 12 10 11 14 16 15 14 14
5 3 6 1 4 1 3 0 5 5 3 6 4 5 1 6 8 10 9 8 9 9 9 9 9 8 8 8 11 18 21 24 22 19 18 15 10 10 8 6 16 16 13 14
1 5 1 4 3 3 2 2 4 5 4 2 3 3 3 6 7 11 9 8 4 5 4 4 2 14 16 10 13 20 21 20 19 17 14 10 10 10 11 9 7 10 12 13
4 2 3 8 6 5 5 4 3 2 3 5 6 4 1 8 9 7 10 8 6 6 5 4 7 5 13 15 11 12 18 22 19 15 10 4 1 6 12 13 13 12 12 9
6 2 5 5 4 3 5 6 2 4 3 5 4 8 7 10 9 7 8 9 8 6 5 3 5 9 12 20 19 17 17 20 16 12 11 9 7 5 7 13 14 14 13 12
4 3 2 3 3 2 1 6 8 5 3 5 7 10 17 14 13 11 9 10 8 6 5 3 1 6 17 18 19 16 16 16 13 3 10 8 8 6 3 5 10 12 12 13
3 0 0 1 1 5 3 6 7 5 3 3 8 1 7 8 7 10 11 11 10 8 7 6 5 7 12 16 20 21 23 22 11 9 7 9 6 6 7 6 7 8 7 7
3 4 3 3 4 3 4 5 5 4 1 5 5 5 13 10 11 11 10 11 11 10 10 9 9 13 18 22 19 19 21 17 13 11 11 10 8 7 8 8 8 10 7 6
5 4 3 2 2 2 6 2 8 4 4 5 3 7 9 11 5 8 9 11 11 10 11 12 15 18 22 27 28 28 26 26 24 21 18 14 14 14 13 12 11 12 9 9
4 5 3 3 1 4 6 5 2 4 4 3 6 9 11 10 12 6 9 9 7 7 12 16 21 22 26 28 26 28 25 23 24 20 19 16 14 15 14 14 13 14 9 12
5 7 4 2 3 5 4 3 3 4 6 4 7 10 15 15 6 4 11 11 13 17 19 16 23 25 27 24 26 26 22 21 20 17 16 15 14 13 12 12 12 11 10 13
4 4 4 2 2 5 4 8 5 4 5 3 8 13 14 9 4 6 11 12 13 14 20 26 24 26 23 22 22 23 20 18 15 14 15 15 14 15 14 13 13 13 14 13
4 5 2 2 2 3 5 6 1 4 2 4 4 3 5 6 11 14 11 11 16 18 20 23 25 22 19 18 19 20 19 13 12 13 15 15 14 15 15 15 15 15 15 15
0 5 4 6 5 4 5 4 4 2 2 1 6 5 8 13 10 11 9 11 15 18 20 21 24 21 16 15 14 18 14 11 12 13 14 15 14 16 16 16 15 16 16 16
1 2 2 3 2 2 5 5 6 4 1 5 7 10 11 13 12 11 10 11 13 17 22 24 23 20 17 15 15 15 13 12 13 15 15 14 15 14 14 14 15 15 16 16
4 2 3 2 4 1 0 2 3 3 5 11 8 9 14 14 13 11 7 11 15 17 21 22 21 19 17 15 14 13 12 10 14 14 14 14 14 15 15 15 14 15 15 13
2 4 4 5 4 3 3 6 2 2 2 7 10 7 11 14 16 26 20 22 23 23 24 20 18 18 17 14 13 12 10 9 12 14 14 13 13 13 12 12 12 12 12 10
Wind_Direction
202 101 182 180 191 139 120 89 274 28 164 101 129 106 165 154 160 166 165 193 199 192 180 174 173 188 195 195 196 196 192 192 191 188 185 185 183 187 191 180 180 181 186 190
61 181 210 160 155 132 137 101 96 100 72 96 159 93 230 170 185 182 149 41 219 188 149 163 167 181 195 195 199 195 183 183 186 193 193 195 187 191 199 195 197 196 208 211
143 255 151 131 141 137 191 168 172 146 104 58 117 83 170 222 199 184 151 187 307 193 175 169 175 178 196 198 198 199 186 187 187 185 184 181 184 184 189 196 203 210 214 217
161 201 139 123 158 143 207 195 155 144 113 166 30 204 239 160 179 186 182 195 243 322 216 180 174 183 194 204 204 204 196 191 190 191 186 184 180 177 192 202 207 207 209 212
242 154 140 132 205 167 213 152 160 160 97 113 230 123 244 154 185 194 189 178 184 289 216 196 188 192 197 201 205 200 202 192 191 196 193 195 202 202 189 193 193 201 206 208
223 239 160 205 197 174 160 82 54 60 89 359 209 162 220 188 219 185 181 176 186 280 325 211 210 200 197 201 207 205 203 200 195 193 200 209 202 209 199 185 194 194 196 201
304 260 246 150 121 89 78 83 48 51 64 212 297 137 261 288 213 189 179 178 190 189 333 156 181 191 200 200 209 210 202 200 198 195 203 215 214 213 205 200 198 193 194 196
164 304 186 176 177 179 188 158 151 160 179 215 87 216 267 338 337 186 173 180 168 178 197 160 131 198 206 209 208 212 206 202 200 199 203 213 218 209 219 218 205 203 205 208
145 280 300 200 189 145 185 192 185 102 38 95 202 274 227 99 79 134 175 164 167 180 207 174 206 271 205 208 212 211 214 207 204 201 203 213 213 219 218 228 215 212 212 218
191 324 275 296 67 49 161 165 91 22 133 195 227 236 232 168 150 141 151 166 172 178 195 188 208 217 227 217 209 214 221 215 208 209 209 214 219 222 216 231 212 215 216 216
129 99 289 7 36 357 347 345 51 112 114 154 167 249 285 171 160 153 168 160 163 169 193 215 217 210 230 248 230 209 218 220 204 208 210 214 220 231 237 259 219 216 219 221
339 129 320 251 309 247 320 103 124 137 210 107 151 245 312 170 149 165 166 158 131 126 144 146 164 209 193 204 205 198 210 202 201 195 198 209 217 229 241 245 248 229 229 239
190 13 37 346 357 8 43 321 125 125 91 189 136 244 51 138 146 173 155 156 145 131 134 152 172 156 170 172 181 160 155 136 121 122 124 116 229 249 246 242 236 244 255 267
72 95 147 184 202 196 329 333 342 117 114 167 204 156 196 173 157 156 155 142 131 128 134 146 159 142 146 136 141 142 133 132 115 85 75 50 7 326 268 251 240 231 239 245
88 120 140 165 218 234 162 325 328 199 182 158 195 180 195 183 161 157 139 125 122 120 128 127 108 135 129 120 117 153 168 158 161 110 54 45 43 4 320 232 224 222 220 226
29 105 99 216 306 271 110 3 25 55 83 41 129 148 136 125 134 145 144 135 126 119 115 116 109 86 100 113 128 119 138 122 151 165 55 54 64 75 75 93 131 159 163 193
72 115 44 259 326 323 6 2 356 279 215 143 169 223 151 146 157 145 137 134 133 120 111 92 83 96 104 108 108 102 119 137 122 109 92 83 90 101 83 80 101 112 120 116
124 83 90 213 337 138 234 121 99 103 7 339 290 154 147 123 103 110 131 130 125 124 116 105 98 88 87 97 101 104 102 108 108 101 97 97 87 82 87 85 74 76 87 94
44 117 84 127 201 288 317 31 31 106 291 280 147 131 116 115 105 79 123 117 106 109 106 111 110 106 103 105 107 104 100 99 99 95 97 95 90 86 86 80 71 71 62 77
57 65 106 97 126 204 261 305 290 153 318 162 160 142 140 144 153 157 127 121 122 123 117 114 117 116 115 118 120 114 104 99 93 91 86 90 86 81 76 75 72 74 71 66
18 13 123 123 208 290 288 304 305 119 241 148 179 161 157 167 165 141 130 116 129 127 124 131 124 118 120 122 116 103 98 87 89 90 89 86 88 83 80 80 74 71 71 77
162 129 168 86 96 265 357 320 212 226 202 151 134 147 123 103 129 137 133 124 126 125 128 127 117 112 113 111 106 98 85 87 94 95 91 86 81 80 79 79 75 70 68 66
110 180 184 166 211 252 283 246 287 272 38 50 120 101 126 126 123 133 122 118 128 134 134 132 123 115 105 102 103 101 93 93 92 88 81 78 78 76 73 73 70 67 61 56
280 127 127 98 265 315 331 323 337 350 124 122 115 123 129 130 131 127 123 125 132 143 142 141 133 124 114 109 103 99 103 100 95 88 80 78 74 70 66 65 59 56 51 47
205 122 146 303 279 276 296 2 345 34 96 106 112 136 141 141 132 119 113 147 162 156 153 152 144 138 132 128 116 110 107 107 100 95 88 79 72 67 65 61 60 58 55 47
192 171 150 217 225 153 253 320 320 144 147 140 132 127 156 169 164 165 178 177 160 167 166 162 155 147 144 138 126 117 109 109 109 102 95 85 79 73 66 64 67 62 64 69